IW1CBG-3 Weather Reports


time (UTC)temp
C
wind
direction
speed
KPH
gust
KPH
rain 1hr
cm
rain 24hr
cm
rain mn
cm
humidity
%
barometer
mb
20260503180744 12 282 8.0 0.0 0.00 0.00 0.00 78 1028.9
20260503175744 13 280 1.6 0.0 0.00 0.00 0.00 74 1028.7
20260503174745 13 106 12.9 0.0 0.00 0.00 0.00 73 1029.0
20260503173745 13 130 1.6 0.0 0.00 0.00 0.00 73 1028.9
20260503172745 13 69 4.8 0.0 0.00 0.00 0.00 72 1028.6
20260503171745 13 120 16.1 0.0 0.00 0.00 0.00 71 1028.7
20260503170744 13 136 12.9 0.0 0.00 0.00 0.00 70 1028.3
20260503131038 15 112 24.1 0.0 0.00 0.00 0.00 60 1029.2
20260503081039 13 122 4.8 0.0 0.00 0.00 0.00 55 1031.6
20260503072038 11 141 4.8 0.0 0.00 0.00 0.00 60 1032.3
20260503071038 11 149 6.4 0.0 0.00 0.00 0.00 61 1031.8
20260503055039 7 68 3.2 0.0 0.00 0.00 0.00 71 1033.6
20260503054039 6 3 1.6 0.0 0.00 0.00 0.00 76 1033.9
20260503053039 6 139 6.4 0.0 0.00 0.00 0.00 73 1033.6
20260503052039 6 210 0.0 0.0 0.00 0.00 0.00 76 1033.8
20260503051038 6 236 0.0 0.0 0.00 0.00 0.00 79 1034.2
20260503050038 5 297 3.2 0.0 0.00 0.00 0.00 82 1034.4
20260503045038 5 10 3.2 0.0 0.00 0.00 0.00 81 1034.2
20260503044038 5 280 0.0 0.0 0.00 0.00 0.00 85 1034.6
20260503043039 5 294 0.0 0.0 0.00 0.00 0.00 85 1034.7
20260503042038 5 14 0.0 0.0 0.00 0.00 0.00 85 1034.7
20260503041037 4 195 0.0 0.0 0.00 0.00 0.00 86 1034.7
20260503040039 5 163 3.2 0.0 0.00 0.00 0.00 85 1034.8
20260503035039 5 54 3.2 0.0 0.00 0.00 0.00 85 1034.7
20260503034038 4 37 1.6 0.0 0.00 0.00 0.00 88 1034.7
20260503033040 4 304 0.0 0.0 0.00 0.00 0.00 89 1035.0
20260503032038 5 240 0.0 0.0 0.00 0.00 0.00 88 1034.8
20260503031038 5 40 0.0 0.0 0.00 0.00 0.00 88 1034.9
20260503030039 5 292 4.8 0.0 0.00 0.00 0.00 88 1034.7
20260503025039 5 301 1.6 0.0 0.00 0.00 0.00 88 1034.7
20260503024038 5 29 0.0 0.0 0.00 0.00 0.00 87 1035.1
20260503023039 5 287 3.2 0.0 0.00 0.00 0.00 86 1034.5
20260503022039 5 127 0.0 0.0 0.00 0.00 0.00 85 1034.7
20260503021038 5 329 6.4 0.0 0.00 0.00 0.00 83 1034.4
20260503020039 6 295 1.6 0.0 0.00 0.00 0.00 83 1034.7
20260503015038 6 248 3.2 0.0 0.00 0.00 0.00 83 1034.9
20260503014038 6 221 3.2 0.0 0.00 0.00 0.00 82 1034.3
20260503013039 6 285 4.8 0.0 0.00 0.00 0.00 85 1034.7
20260503012038 6 319 3.2 0.0 0.00 0.00 0.00 85 1034.5
20260503011038 6 56 3.2 0.0 0.00 0.00 0.00 84 1034.5
20260503010038 6 29 0.0 0.0 0.00 0.00 0.00 84 1034.6
20260503005039 6 280 3.2 0.0 0.00 0.00 0.00 85 1034.7
20260503004038 6 282 0.0 0.0 0.00 0.00 0.00 84 1034.8
20260503003038 6 74 1.6 0.0 0.00 0.00 0.00 84 1035.0
20260503002037 6 211 0.0 0.0 0.00 0.00 0.00 85 1035.1
20260503001038 6 51 0.0 0.0 0.00 0.00 0.00 85 1035.2
20260503000039 6 276 3.2 0.0 0.00 0.00 0.00 84 1035.1
20260502235038 7 315 0.0 0.0 0.00 0.00 0.00 83 1035.1
20260502234038 7 8 0.0 0.0 0.00 0.00 0.00 82 1035.1
20260502233038 6 339 4.8 0.0 0.00 0.00 0.00 83 1035.2
20260502232038 7 262 1.6 0.0 0.00 0.00 0.00 83 1035.1
20260502231038 7 174 0.0 0.0 0.00 0.00 0.00 83 1035.1
20260502230038 7 263 3.2 0.0 0.00 0.00 0.00 82 1035.2
20260502225039 7 320 0.0 0.0 0.00 0.00 0.00 80 1035.1
20260502224038 7 85 3.2 0.0 0.00 0.00 0.00 81 1035.0
20260502223038 7 252 0.0 0.0 0.00 0.00 0.00 81 1035.2
20260502222038 7 34 0.0 0.0 0.00 0.00 0.00 81 1035.0
20260502221039 8 315 1.6 0.0 0.00 0.00 0.00 78 1035.0
20260502220039 8 181 0.0 0.0 0.00 0.00 0.00 78 1035.1
20260502215039 8 249 1.6 0.0 0.00 0.00 0.00 77 1034.8
20260502214039 9 206 0.0 0.0 0.00 0.00 0.00 73 1034.4
20260502213039 9 293 1.6 0.0 0.00 0.00 0.00 74 1034.4
20260502212038 10 123 1.6 0.0 0.00 0.00 0.00 69 1033.8
20260502211039 11 180 1.6 0.0 0.00 0.00 0.00 68 1033.9
20260502210039 11 165 3.2 0.0 0.00 0.00 0.00 68 1033.8
20260502205039 11 56 1.6 0.0 0.00 0.00 0.00 70 1034.3
20260502204038 11 276 4.8 0.0 0.00 0.00 0.00 67 1033.7
20260502203039 12 19 4.8 0.0 0.00 0.00 0.00 64 1033.6
20260502202038 12 145 9.7 0.0 0.00 0.00 0.00 61 1033.3
20260502201038 12 156 8.0 0.0 0.00 0.00 0.00 61 1033.3
20260502200038 12 153 9.7 0.0 0.00 0.00 0.00 61 1033.5
20260502195040 12 155 8.0 0.0 0.00 0.00 0.00 62 1033.3
20260502194038 13 135 8.0 0.0 0.00 0.00 0.00 61 1033.0
20260502193040 13 173 4.8 0.0 0.00 0.00 0.00 58 1032.9
20260502192038 13 103 4.8 0.0 0.00 0.00 0.00 60 1032.9
20260502191038 12 160 3.2 0.0 0.00 0.00 0.00 60 1033.2
20260502190038 12 223 3.2 0.0 0.00 0.00 0.00 63 1033.0
20260502185039 12 168 0.0 0.0 0.00 0.00 0.00 65 1033.0
20260502184039 12 3 0.0 0.0 0.00 0.00 0.00 68 1032.7
20260502183039 13 357 3.2 0.0 0.00 0.00 0.00 64 1032.7
20260502182038 13 289 3.2 0.0 0.00 0.00 0.00 66 1032.7